Terug naar catalogus

YZ-1 R/B

ActiefMEO
NORAD 43605·ROCKET BODY·🇨🇳 China

Gelanceerd Aug 24, 2018 vanaf Xichang Satellite Launch Center

Loading…

Volgende Passages (komende 24 uur)

TLE

VerouderendSource: Space-Track

Epoch: Aug 27, 2026, 13:48 UTC

1 43605U 18067D   26239.57565541  .00000015  00000-0  00000+0 0  9995
2 43605  53.7973 186.1479 0055209  50.0032 310.4410  1.78798375 52286

Volg YZ-1 R/B in realtime met AllMySat

Download on the App Store